Location: Elstree
(51.6403°N, 0.2969°W)
Time: 04:33:52
(UTC+00:00)

SJ 16-02 - Pass Details

Date: 21 June 2021
Orbit: 606 x 616 km, 75.0° (Epoch: 26 July)

Event Time Altitude Azimuth Distance (km) Brightness Sun altitude
Rises 23:22:40 0° 336° (NNW) 2,878 6.4 -14.4°
Reaches altitude 10° 23:24:55 10° 336° (NNW) 1,969 5.2 -14.5°
Maximum altitude 23:29:19 88° 252° (WSW) 615 1.3 -14.6°
Enters shadow 23:31:54 24° 160° (SSE) 1,257 2.3 -14.6°
